When you browse on this site, cookies collect data to enhance your experience and personalize the content and advertising you see.
Visit our Privacy Policy to learn more. By continuing to use the site, you agree to this use of cookies and data.
  • In Czech Republic
  • List of Countries
  • For 7 days
  • Water Temperature
  • Satellite Maps
  • Weather Map
  • Weather Widgets
  • user-avatar
    Login

    Hourly Weather Vanadzor

    Today, 23 May, Thursday

    Time Temperature Precipitation Wind Pressure Humidity
    00:00 +9°C° 0 mm 2 mps 636 mmHg 81%
    01:00 +9°C° 0 mm 2 mps 635 mmHg 78%
    02:00 +8°C° 0 mm 2 mps 635 mmHg 76%
    03:00 +8°C° 0 mm 3 mps 634 mmHg 74%
    04:00 +9°C° 0 mm 3 mps 635 mmHg 75%
    05:00 +9°C° 0 mm 2 mps 635 mmHg 77%
    06:00 +10°C° 0 mm 2 mps 635 mmHg 78%
    07:00 +13°C° 0 mm 2 mps 635 mmHg 73%
    08:00 +15°C° 0 mm 2 mps 636 mmHg 67%
    09:00 +17°C° 0 mm 2 mps 636 mmHg 61%
    10:00 +17°C° 0.4 mm 2 mps 636 mmHg 64%
    11:00 +17°C° 0.4 mm 3 mps 636 mmHg 66%
    12:00 +17°C° 0.4 mm 3 mps 635 mmHg 68%
    13:00 +18°C° 0.5 mm 3 mps 635 mmHg 68%
    14:00 +18°C° 0.5 mm 3 mps 635 mmHg 68%
    15:00 +18°C° 0.5 mm 3 mps 635 mmHg 67%
    16:00 +18°C° 0.6 mm 2 mps 635 mmHg 71%
    17:00 +17°C° 0.6 mm 2 mps 635 mmHg 75%
    18:00 +16°C° 0.6 mm 1 mps 635 mmHg 80%
    19:00 +15°C° 0.3 mm 1 mps 635 mmHg 82%
    20:00 +14°C° 0.3 mm 1 mps 635 mmHg 84%
    21:00 +13°C° 0.3 mm 1 mps 635 mmHg 87%
    22:00 +12°C° 0.1 mm 2 mps 635 mmHg 86%
    23:00 +10°C° 0.1 mm 2 mps 634 mmHg 86%

    Tomorrow, 24 May, Friday

    Time Temperature Precipitation Wind Pressure Humidity
    00:00 +10°C° 0.1 mm 2 mps 634 mmHg 85%
    01:00 +10°C° 0.1 mm 2 mps 634 mmHg 86%
    02:00 +10°C° 0.1 mm 2 mps 634 mmHg 86%
    03:00 +10°C° 0.1 mm 2 mps 634 mmHg 87%
    04:00 +12°C° 0 mm 2 mps 634 mmHg 87%
    05:00 +12°C° 0 mm 2 mps 635 mmHg 88%
    06:00 +12°C° 0 mm 2 mps 635 mmHg 88%
    07:00 +15°C° 0 mm 2 mps 635 mmHg 79%
    08:00 +17°C° 0 mm 2 mps 636 mmHg 71%
    09:00 +19°C° 0 mm 3 mps 636 mmHg 62%
    10:00 +20°C° 0.2 mm 3 mps 636 mmHg 61%
    11:00 +21°C° 0.2 mm 4 mps 636 mmHg 59%
    12:00 +21°C° 0.2 mm 4 mps 636 mmHg 57%
    13:00 +22°C° 0.8 mm 4 mps 636 mmHg 57%
    14:00 +22°C° 0.8 mm 4 mps 636 mmHg 57%
    15:00 +22°C° 0.8 mm 4 mps 636 mmHg 57%
    16:00 +20°C° 1.6 mm 3 mps 636 mmHg 66%
    17:00 +18°C° 1.6 mm 2 mps 635 mmHg 75%
    18:00 +18°C° 1.6 mm 1 mps 635 mmHg 84%
    19:00 +16°C° 0.4 mm 1 mps 635 mmHg 85%
    20:00 +15°C° 0.4 mm 1 mps 636 mmHg 85%
    21:00 +14°C° 0.4 mm 2 mps 636 mmHg 85%
    22:00 +14°C° 0.5 mm 2 mps 636 mmHg 85%
    23:00 +13°C° 0.5 mm 2 mps 636 mmHg 85%

    Day after tomorrow, 25 May, Saturday

    Time Temperature Precipitation Wind Pressure Humidity
    00:00 +13°C° 0.5 mm 2 mps 636 mmHg 85%
    01:00 +13°C° 0 mm 2 mps 636 mmHg 83%
    02:00 +12°C° 0 mm 1 mps 636 mmHg 82%
    03:00 +12°C° 0 mm 1 mps 636 mmHg 80%
    04:00 +13°C° 0 mm 1 mps 636 mmHg 79%
    05:00 +13°C° 0 mm 1 mps 636 mmHg 77%
    06:00 +14°C° 0 mm 1 mps 636 mmHg 76%
    07:00 +17°C° 0 mm 2 mps 637 mmHg 68%
    08:00 +19°C° 0 mm 2 mps 638 mmHg 60%
    09:00 +21°C° 0 mm 2 mps 638 mmHg 53%
    10:00 +24°C° 0 mm 3 mps 638 mmHg 49%
    11:00 +25°C° 0 mm 4 mps 638 mmHg 45%
    12:00 +26°C° 0 mm 5 mps 638 mmHg 41%
    13:00 +26°C° 0.1 mm 4 mps 638 mmHg 44%
    14:00 +25°C° 0.1 mm 4 mps 638 mmHg 47%
    15:00 +25°C° 0.1 mm 4 mps 637 mmHg 50%
    16:00 +22°C° 1.2 mm 3 mps 636 mmHg 60%
    17:00 +20°C° 1.2 mm 2 mps 636 mmHg 70%
    18:00 +19°C° 1.2 mm 1 mps 635 mmHg 80%
    19:00 +17°C° 0.2 mm 2 mps 635 mmHg 80%
    20:00 +15°C° 0.2 mm 2 mps 635 mmHg 81%
    21:00 +14°C° 0.2 mm 2 mps 635 mmHg 81%
    22:00 +14°C° 0.2 mm 1 mps 635 mmHg 82%
    23:00 +13°C° 0.2 mm 1 mps 635 mmHg 82%

    26 May, Sunday

    Time Temperature Precipitation Wind Pressure Humidity
    00:00 +11°C° 0.2 mm 0 mps 635 mmHg 83%
    01:00 +11°C° 0 mm 0 mps 634 mmHg 83%
    02:00 +11°C° 0 mm 0 mps 634 mmHg 83%
    03:00 +10°C° 0 mm 0 mps 634 mmHg 83%
    04:00 +11°C° 0 mm 0 mps 634 mmHg 81%
    05:00 +13°C° 0 mm 1 mps 635 mmHg 79%
    06:00 +14°C° 0 mm 1 mps 635 mmHg 76%
    07:00 +16°C° 0 mm 1 mps 636 mmHg 70%
    08:00 +19°C° 0 mm 1 mps 636 mmHg 63%
    09:00 +21°C° 0 mm 1 mps 636 mmHg 56%
    10:00 +21°C° 0 mm 2 mps 636 mmHg 52%
    11:00 +22°C° 0 mm 3 mps 636 mmHg 47%
    12:00 +24°C° 0 mm 3 mps 637 mmHg 43%
    13:00 +25°C° 0 mm 3 mps 636 mmHg 43%
    14:00 +25°C° 0 mm 3 mps 636 mmHg 42%
    15:00 +25°C° 0 mm 3 mps 636 mmHg 42%
    16:00 +22°C° 0.8 mm 3 mps 636 mmHg 52%
    17:00 +20°C° 0.8 mm 3 mps 636 mmHg 63%
    18:00 +18°C° 0.8 mm 3 mps 635 mmHg 74%
    19:00 +16°C° 1 mm 2 mps 636 mmHg 79%
    20:00 +14°C° 1 mm 2 mps 636 mmHg 83%
    21:00 +12°C° 1 mm 1 mps 636 mmHg 88%
    22:00 +11°C° 0.1 mm 1 mps 636 mmHg 87%
    23:00 +11°C° 0.1 mm 1 mps 636 mmHg 85%

    27 May, Monday

    Time Temperature Precipitation Wind Pressure Humidity
    00:00 +11°C° 0.1 mm 1 mps 636 mmHg 83%
    01:00 +10°C° 0 mm 1 mps 636 mmHg 82%
    02:00 +10°C° 0 mm 1 mps 636 mmHg 81%
    03:00 +10°C° 0 mm 1 mps 636 mmHg 80%
    04:00 +10°C° 0 mm 1 mps 636 mmHg 79%
    05:00 +11°C° 0 mm 1 mps 637 mmHg 78%
    06:00 +12°C° 0 mm 1 mps 637 mmHg 77%
    07:00 +14°C° 0 mm 1 mps 638 mmHg 67%
    08:00 +16°C° 0 mm 1 mps 639 mmHg 58%
    09:00 +19°C° 0 mm 1 mps 639 mmHg 49%
    10:00 +20°C° 0 mm 1 mps 639 mmHg 47%
    11:00 +21°C° 0 mm 1 mps 639 mmHg 45%
    12:00 +21°C° 0 mm 2 mps 640 mmHg 43%
    13:00 +21°C° 0 mm 2 mps 639 mmHg 44%
    14:00 +21°C° 0 mm 2 mps 639 mmHg 45%
    15:00 +23°C° 0 mm 2 mps 639 mmHg 46%
    16:00 +21°C° 0 mm 2 mps 639 mmHg 55%
    17:00 +20°C° 0 mm 2 mps 639 mmHg 64%
    18:00 +19°C° 0 mm 2 mps 639 mmHg 73%
    19:00 +17°C° 0 mm 2 mps 639 mmHg 79%
    20:00 +15°C° 0 mm 1 mps 639 mmHg 85%
    21:00 +13°C° 0 mm 1 mps 639 mmHg 91%
    22:00 +12°C° 0 mm 1 mps 639 mmHg 91%
    23:00 +12°C° 0 mm 1 mps 639 mmHg 90%

    28 May, Tuesday

    Time Temperature Precipitation Wind Pressure Humidity
    00:00 +11°C° 0 mm 1 mps 639 mmHg 89%
    01:00 +11°C° 0 mm 1 mps 639 mmHg 90%
    02:00 +10°C° 0 mm 1 mps 639 mmHg 91%
    03:00 +10°C° 0 mm 1 mps 639 mmHg 92%
    04:00 +11°C° 0 mm 1 mps 639 mmHg 90%
    05:00 +12°C° 0 mm 1 mps 640 mmHg 88%
    06:00 +12°C° 0 mm 1 mps 640 mmHg 86%
    07:00 +14°C° 0 mm 1 mps 640 mmHg 79%
    08:00 +16°C° 0 mm 1 mps 641 mmHg 72%
    09:00 +18°C° 0 mm 2 mps 641 mmHg 66%
    10:00 +19°C° 0 mm 2 mps 641 mmHg 64%
    11:00 +21°C° 0 mm 2 mps 641 mmHg 62%
    12:00 +23°C° 0 mm 2 mps 641 mmHg 60%
    13:00 +23°C° 0.1 mm 2 mps 641 mmHg 63%
    14:00 +23°C° 0.1 mm 2 mps 640 mmHg 65%
    15:00 +22°C° 0.1 mm 3 mps 640 mmHg 68%
    16:00 +21°C° 0.1 mm 2 mps 640 mmHg 72%
    17:00 +20°C° 0.1 mm 2 mps 640 mmHg 77%
    18:00 +19°C° 0.1 mm 2 mps 640 mmHg 82%
    19:00 +18°C° 0 mm 2 mps 640 mmHg 86%
    20:00 +16°C° 0 mm 1 mps 640 mmHg 91%
    21:00 +14°C° 0 mm 1 mps 639 mmHg 95%
    22:00 +14°C° 0 mm 1 mps 639 mmHg 95%
    23:00 +13°C° 0 mm 1 mps 639 mmHg 95%
    Show more